Tracking 23885 objects as of 28-Nov-2021
HD Live streaming from Space Station
objects crossing your sky now

SPACEBEE-88

Track SPACEBEE-88 now!
10-day predictions


NORAD ID: 48935
Int'l Code: 2021-059BJ
Perigee: 513.0 km
Apogee: 538.2 km
Inclination: 97.5 °
Period: 95.0 minutes
Semi major axis: 6896 km
RCS: Unknown
Launch date: June 30, 2021
Source: United States (US)
Launch site: AIR FORCE EASTERN TEST RANGE (AFETR)
aabbcc
Your satellite tracking list
Your tracking list is empty




NASA's NSSDC Master Catalog

Two Line Element Set (TLE):
1 48935U 21059BJ  21331.81357700  .00007535  00000-0  39586-3 0  9991
2 48935  97.5251  98.8406 0018248  81.3978 278.9321 15.15840066 23467
Source of the keplerian elements: AFSPC